User: anonymous   Login
Location: Unspecified
(0.0000°N, 0.0000°E)
Time: 20:02:20
(UTC+00:00)
Language:

FEDSAT - Orbit

View from above orbital plane
View from above orbital plane
View from above satellite
View from above satellite

Ground track
Ground track

The orbit data is extracted from the following two-line orbital elements,

1 27598U 02056B   17144.82538506 -.00000012 +00000-0 +12206-4 0  9997
2 27598 098.4307 101.3030 0008332 320.0751 039.9817 14.28623614752992
Epoch (UTC): 24 May 2017 19:48:33
Eccentricity: 0.0008332
inclination: 98.4307°
perigee height: 790 km
apogee height: 802 km
right ascension of ascending node: 101.3030°
argument of perigee: 320.0751°
revolutions per day: 14.28623614
mean anomaly at epoch: 39.9817°
orbit number at epoch: 75299

The dashed part of the orbit path shows where the satellite is in the earth's shadow,  

DLR